Location: Catacaguana
(10.4120°N, 66.7591°W)
Time: 06:32:43
(UTC+00:00)

Cosmos 2227 Rocket - Pass Details

Date: 27 May 2022
Orbit: 838 x 846 km, 71.0° (Epoch: 26 June)

Event Time Altitude Azimuth Distance (km) Brightness Sun altitude
Rises 01:27:40 0° 345° (NNW) 3,392 6.0 -36.3°
Reaches altitude 10° 01:30:06 10° 345° (NNW) 2,456 5.1 -36.8°
Enters shadow 01:32:24 26° 346° (NNW) 1,616 4.0 -37.3°
